Rechercher aéroport 
image banner adimage banner ad
image banner ad

WBKU - Kuala Penyu

Situé à , Malaysia

ICAO - WBKU, IATA -

Données fournies par Airmate  

Information générale

Coordonnées: N5°35'59" E115°34'28"
Élévation : 6 feet MSL.
 
Évalué:
Voir évaluations: [VIEW]


Voir autres Aéroports à Sabah

Données opérationnelles

Accessible au public
Heure actuelle UTC:
Heure actuelle locale:
Météo à : WBKL - Labuan ( 49 km )
METAR: WBKL 021800Z 00000KT 9999 FEW014 BKN290 26/25 Q1009
TAF: TAF WBKL 021700Z 0218/0318 VRB03KT 9999 FEW014 TEMPO 0300/0304 5000 TSRA FEW013 FEW014CB SCT035
Voir NOTAMs / SUP AIP / TFR affectant cet aéroport [VIEW]
Fréquences de communication: [VIEW]

Pistes:

Identifiant RWYQFULongueur (ft)Largeur (ft)SurfaceLDA (ft)
0300
2100

Coordonnées de l'aéroport

Adresse: Malaysia

Vue satellite de WBKU